TimeCDT,TemperatureF,Dew PointF,Humidity,Sea Level PressureIn,VisibilityMPH,Wind Direction,Wind SpeedMPH,Gust SpeedMPH,PrecipitationIn,Events,Conditions,WindDirDegrees,DateUTC
12:15 AM,68.0,66.2,94,29.84,5.0,ENE,3.5,-,N/A,,Clear,70,2013-07-07 05:15:00
12:35 AM,68.0,66.2,94,29.84,7.0,ENE,3.5,-,N/A,,Clear,70,2013-07-07 05:35:00
12:55 AM,68.0,66.2,94,29.84,5.0,East,4.6,-,N/A,,Clear,80,2013-07-07 05:55:00
1:15 AM,68.0,66.2,94,29.84,5.0,Calm,Calm,-,N/A,,Clear,0,2013-07-07 06:15:00
1:36 AM,68.0,66.2,94,29.84,4.0,Calm,Calm,-,N/A,,Clear,0,2013-07-07 06:36:00
1:55 AM,68.0,66.2,94,29.84,5.0,SE,3.5,-,N/A,,Clear,130,2013-07-07 06:55:00
2:15 AM,66.2,64.4,94,29.84,4.0,Calm,Calm,-,N/A,,Clear,0,2013-07-07 07:15:00
2:36 AM,68.0,64.4,88,29.84,4.0,Calm,Calm,-,N/A,,Clear,0,2013-07-07 07:36:00
2:55 AM,68.0,64.4,88,29.84,5.0,Calm,Calm,-,N/A,,Clear,0,2013-07-07 07:55:00
3:15 AM,68.0,66.2,94,29.83,5.0,ESE,3.5,-,N/A,,Clear,120,2013-07-07 08:15:00
3:36 AM,66.2,64.4,94,29.84,4.0,Calm,Calm,-,N/A,,Clear,0,2013-07-07 08:36:00
3:55 AM,66.2,64.4,94,29.84,2.5,Calm,Calm,-,N/A,,Mist,0,2013-07-07 08:55:00
4:15 AM,66.2,64.4,94,29.84,4.0,Calm,Calm,-,N/A,,Clear,0,2013-07-07 09:15:00
4:36 AM,66.2,64.4,94,29.84,3.0,Calm,Calm,-,N/A,,Mist,0,2013-07-07 09:36:00
4:55 AM,64.4,64.4,100,29.85,2.0,ENE,3.5,-,N/A,,Mist,60,2013-07-07 09:55:00
5:15 AM,64.4,64.4,100,29.85,2.0,NE,3.5,-,N/A,,Mist,50,2013-07-07 10:15:00
5:36 AM,66.2,64.4,94,29.86,2.5,NE,3.5,-,N/A,,Mist,40,2013-07-07 10:36:00
5:55 AM,66.2,64.4,94,29.87,1.5,Calm,Calm,-,N/A,,Mostly Cloudy,0,2013-07-07 10:55:00
6:15 AM,66.2,64.4,94,29.87,1.2,NE,3.5,-,N/A,,Mostly Cloudy,50,2013-07-07 11:15:00
6:36 AM,66.2,64.4,94,29.86,0.2,Calm,Calm,-,N/A,Fog,Fog,0,2013-07-07 11:36:00
6:55 AM,64.4,64.4,100,29.86,0.5,Calm,Calm,-,N/A,Fog,Fog,0,2013-07-07 11:55:00
7:15 AM,66.2,64.4,94,29.87,0.8,Calm,Calm,-,N/A,,Overcast,0,2013-07-07 12:15:00
7:36 AM,68.0,66.2,94,29.87,2.0,Calm,Calm,-,N/A,,Overcast,0,2013-07-07 12:36:00
7:55 AM,68.0,68.0,100,29.88,2.5,Calm,Calm,-,N/A,,Overcast,0,2013-07-07 12:55:00
8:15 AM,69.8,68.0,94,29.88,5.0,Calm,Calm,-,N/A,,Scattered Clouds,0,2013-07-07 13:15:00
8:36 AM,71.6,69.8,94,29.88,7.0,Calm,Calm,-,N/A,,Clear,0,2013-07-07 13:36:00
8:55 AM,73.4,69.8,88,29.89,7.0,Calm,Calm,-,N/A,,Clear,0,2013-07-07 13:55:00
9:15 AM,73.4,69.8,88,29.89,10.0,Calm,Calm,-,N/A,,Clear,0,2013-07-07 14:15:00
9:36 AM,75.2,69.8,83,29.89,10.0,NNE,3.5,-,N/A,,Clear,30,2013-07-07 14:36:00
9:55 AM,77.0,69.8,78,29.89,10.0,NNE,3.5,-,N/A,,Clear,30,2013-07-07 14:55:00
10:15 AM,77.0,69.8,78,29.88,10.0,NNE,4.6,-,N/A,,Scattered Clouds,30,2013-07-07 15:15:00
10:36 AM,77.0,69.8,78,29.89,10.0,Calm,Calm,-,N/A,,Scattered Clouds,0,2013-07-07 15:36:00
10:55 AM,78.8,69.8,74,29.89,10.0,NNE,4.6,-,N/A,,Scattered Clouds,30,2013-07-07 15:55:00
11:15 AM,78.8,69.8,74,29.89,10.0,North,6.9,-,N/A,,Scattered Clouds,350,2013-07-07 16:15:00
11:35 AM,80.6,69.8,70,29.89,10.0,NNW,8.1,-,N/A,,Scattered Clouds,340,2013-07-07 16:35:00
11:55 AM,80.6,69.8,70,29.90,10.0,NW,8.1,-,N/A,,Scattered Clouds,310,2013-07-07 16:55:00
12:16 PM,80.6,69.8,70,29.90,10.0,NNW,9.2,-,N/A,,Scattered Clouds,340,2013-07-07 17:16:00
12:35 PM,80.6,69.8,70,29.91,10.0,NW,9.2,-,N/A,,Scattered Clouds,310,2013-07-07 17:35:00
12:55 PM,80.6,69.8,70,29.92,10.0,WNW,9.2,-,N/A,,Scattered Clouds,300,2013-07-07 17:55:00
1:16 PM,80.6,69.8,70,29.91,10.0,NNW,8.1,-,N/A,,Clear,340,2013-07-07 18:16:00
1:35 PM,80.6,68.0,65,29.91,10.0,NNW,5.8,-,N/A,,Clear,340,2013-07-07 18:35:00
1:55 PM,80.6,69.8,70,29.91,10.0,NW,10.4,-,N/A,,Clear,320,2013-07-07 18:55:00
2:16 PM,80.6,69.8,70,29.92,10.0,NW,10.4,-,N/A,,Clear,320,2013-07-07 19:16:00
2:35 PM,80.6,69.8,70,29.92,10.0,NNW,9.2,-,N/A,,Scattered Clouds,330,2013-07-07 19:35:00
2:55 PM,80.6,69.8,70,29.93,10.0,WNW,10.4,-,N/A,,Scattered Clouds,300,2013-07-07 19:55:00
3:16 PM,78.8,69.8,74,29.93,10.0,NW,10.4,-,N/A,,Clear,320,2013-07-07 20:16:00
3:35 PM,80.6,69.8,70,29.93,10.0,NW,11.5,-,N/A,,Clear,310,2013-07-07 20:35:00
3:55 PM,80.6,68.0,65,29.93,10.0,NW,12.7,-,N/A,,Clear,320,2013-07-07 20:55:00
4:15 PM,80.6,66.2,61,29.93,10.0,NNW,10.4,-,N/A,,Clear,330,2013-07-07 21:15:00
4:35 PM,78.8,64.4,61,29.93,10.0,WNW,11.5,-,N/A,,Clear,300,2013-07-07 21:35:00
4:55 PM,78.8,64.4,61,29.93,10.0,NNW,13.8,-,N/A,,Clear,330,2013-07-07 21:55:00
5:15 PM,78.8,62.6,57,29.94,10.0,NW,12.7,-,N/A,,Clear,310,2013-07-07 22:15:00
5:35 PM,77.0,59.0,54,29.94,10.0,NNW,11.5,-,N/A,,Clear,330,2013-07-07 22:35:00
5:56 PM,77.0,60.8,57,29.94,10.0,NNW,11.5,-,N/A,,Clear,330,2013-07-07 22:56:00
6:15 PM,77.0,59.0,54,29.95,10.0,NW,12.7,-,N/A,,Clear,320,2013-07-07 23:15:00
6:35 PM,77.0,59.0,54,29.94,10.0,NNW,11.5,-,N/A,,Clear,330,2013-07-07 23:35:00
6:56 PM,77.0,60.8,57,29.93,10.0,NNW,10.4,-,N/A,,Clear,340,2013-07-07 23:56:00
7:15 PM,77.0,60.8,57,29.94,10.0,NNW,8.1,-,N/A,,Clear,330,2013-07-08 00:15:00
7:35 PM,75.2,60.8,61,29.94,10.0,NNW,6.9,-,N/A,,Clear,330,2013-07-08 00:35:00
7:56 PM,73.4,60.8,65,29.94,10.0,NNW,6.9,-,N/A,,Clear,330,2013-07-08 00:56:00
8:15 PM,75.2,62.6,65,29.94,10.0,NW,4.6,-,N/A,,Clear,320,2013-07-08 01:15:00
8:35 PM,75.2,62.6,65,29.94,10.0,NW,4.6,-,N/A,,Clear,310,2013-07-08 01:35:00
8:56 PM,73.4,60.8,65,29.95,10.0,NNW,5.8,-,N/A,,Clear,330,2013-07-08 01:56:00
9:15 PM,71.6,60.8,69,29.95,10.0,NNW,3.5,-,N/A,,Clear,340,2013-07-08 02:15:00
9:35 PM,71.6,60.8,69,29.95,10.0,NNW,5.8,-,N/A,,Clear,340,2013-07-08 02:35:00
9:56 PM,69.8,62.6,78,29.95,10.0,NNW,4.6,-,N/A,,Clear,340,2013-07-08 02:56:00
10:15 PM,69.8,62.6,78,29.96,10.0,NNW,3.5,-,N/A,,Clear,330,2013-07-08 03:15:00
10:35 PM,69.8,60.8,73,29.96,10.0,NNW,3.5,-,N/A,,Clear,330,2013-07-08 03:35:00
10:56 PM,69.8,60.8,73,29.97,10.0,NNW,4.6,-,N/A,,Clear,330,2013-07-08 03:56:00
11:15 PM,68.0,60.8,78,29.97,10.0,NNW,3.5,-,N/A,,Clear,330,2013-07-08 04:15:00
11:35 PM,68.0,60.8,78,29.98,10.0,NW,3.5,-,N/A,,Clear,320,2013-07-08 04:35:00
11:55 PM,68.0,60.8,78,29.99,10.0,Calm,Calm,-,N/A,,Clear,0,2013-07-08 04:55:00